Weather History for Winnsboro, SC

Change the Weather History Date:

Wednesday, November 21, 2012

  Actual Average Record
Temperature  
Mean Temperature 53 °F -  
Max Temperature 64 °F 62 °F 78 °F (2011)
Min Temperature 42 °F 40 °F 37 °F (2014)
Degree Days  
Heating Degree Days 12    
Growing Degree Days 3 (Base 50)    
Moisture  
Dew Point 42 °F    
Average Humidity 68    
Maximum Humidity 100    
Minimum Humidity 37    
Precipitation  
Precipitation 0.00 in - - ()
Sea Level Pressure  
Sea Level Pressure 30.13 in    
Wind  
Wind Speed 4 mph (NNE)    
Max Wind Speed 10 mph    
Max Gust Speed 10 mph    
Visibility 10 miles    
Events      
Averages and records for this station are not official NWS values.
T = Trace of Precipitation, MM = Missing Value Source: NWS Daily Summary

Daily Weather History Graph

Daily Weather History Graph

Search for Another Location

Airport:

Trip Planner

Search our weather history database for the weather conditions in past years. The results will help you decide how hot, cold, wet, or windy it might be!

Date:

Astronomy

Nov. 21, 2012 Rise Set
Actual Time 7:03 AM EST 5:16 PM EST
Civil Twilight 6:36 AM EST 5:43 PM EST
Nautical Twilight 6:06 AM EST 6:14 PM EST
Astronomical Twilight 5:36 AM EST 6:44 PM EST
Moon 1:18 PM EST (11/21) 12:37 AM EST (11/21)
Length of Visible Light 11h 07m
Length of Day
10h 13m
First Quarter, 61% of the Moon is Illuminated
Nov 21
First Quarter
Nov 28
Full
Dec 6
Last Quarter
Dec 13
New
Dec 20
First Quarter

Hourly Weather History & Observations

Time (EST) Temp. Windchill Dew Point Humidity Pressure Visibility Wind Dir Wind Speed Gust Speed Precip Events Conditions
12:15 AM 50.0 °F - 46.4 °F 87% 30.10 in 10.0 mi NE 4.6 mph - N/A   Clear
12:35 AM 51.8 °F - 46.4 °F 82% 30.09 in 10.0 mi NE 3.5 mph - N/A   Clear
12:55 AM 50.0 °F - 46.4 °F 87% 30.10 in 10.0 mi NE 3.5 mph - N/A   Clear
1:15 AM 50.0 °F - 44.6 °F 82% 30.09 in 10.0 mi Calm Calm - N/A   Clear
1:35 AM 48.2 °F - 44.6 °F 87% 30.09 in 10.0 mi NE 4.6 mph - N/A   Clear
1:55 AM 50.0 °F - 46.4 °F 87% 30.08 in 10.0 mi NE 3.5 mph - N/A   Clear
2:15 AM 50.0 °F - 44.6 °F 82% 30.08 in 10.0 mi NE 4.6 mph - N/A   Clear
2:35 AM 46.4 °F - 44.6 °F 93% 30.08 in 10.0 mi Calm Calm - N/A   Clear
2:55 AM 46.4 °F 44.3 °F 44.6 °F 93% 30.08 in 10.0 mi NNE 4.6 mph - N/A   Clear
3:15 AM 46.4 °F 44.3 °F 44.6 °F 93% 30.08 in 10.0 mi NE 4.6 mph - N/A   Clear
3:35 AM 46.4 °F 44.3 °F 44.6 °F 93% 30.08 in 10.0 mi NE 4.6 mph - N/A   Clear
3:55 AM 46.4 °F 45.2 °F 44.6 °F 93% 30.08 in 10.0 mi NE 3.5 mph - N/A   Clear
4:15 AM 44.6 °F 42.2 °F 42.8 °F 93% 30.08 in 10.0 mi NNE 4.6 mph - N/A   Clear
4:35 AM 46.4 °F 45.2 °F 44.6 °F 93% 30.09 in 10.0 mi NE 3.5 mph - N/A   Clear
4:55 AM 46.4 °F 44.3 °F 44.6 °F 93% 30.09 in 10.0 mi NE 4.6 mph - N/A   Clear
5:15 AM 46.4 °F 45.2 °F 44.6 °F 93% 30.09 in 10.0 mi NE 3.5 mph - N/A   Clear
6:15 AM 42.8 °F - 41.0 °F 93% 30.10 in 7.0 mi Calm Calm - N/A   Clear
6:35 AM 42.8 °F 41.1 °F 42.8 °F 100% 30.10 in 10.0 mi North 3.5 mph - N/A   Clear
6:55 AM 42.8 °F 41.1 °F 42.8 °F 100% 30.10 in 7.0 mi North 3.5 mph - N/A   Clear
7:15 AM 42.8 °F 41.1 °F 42.8 °F 100% 30.11 in 10.0 mi North 3.5 mph - N/A   Clear
7:55 AM 44.6 °F 42.2 °F 42.8 °F 93% 30.13 in 10.0 mi NNE 4.6 mph - N/A   Clear
8:15 AM 42.8 °F 40.1 °F 42.8 °F 100% 30.13 in 10.0 mi NNE 4.6 mph - N/A   Clear
8:55 AM 46.4 °F 45.2 °F 44.6 °F 93% 30.15 in 10.0 mi NNE 3.5 mph - N/A   Clear
9:15 AM 46.4 °F - 44.6 °F 93% 30.15 in 7.0 mi Calm Calm - N/A   Clear
9:35 AM 46.4 °F 43.5 °F 46.4 °F 100% 30.16 in 7.0 mi NNE 5.8 mph - N/A   Clear
9:55 AM 50.0 °F - 46.4 °F 87% 30.16 in 10.0 mi NNE 3.5 mph - N/A   Clear
10:15 AM 51.8 °F - 46.4 °F 82% 30.17 in 10.0 mi NE 3.5 mph - N/A   Clear
10:35 AM 53.6 °F - 46.4 °F 77% 30.17 in 10.0 mi NE 4.6 mph - N/A   Clear
10:55 AM 55.4 °F - 46.4 °F 72% 30.17 in 10.0 mi NE 5.8 mph - N/A   Clear
11:15 AM 57.2 °F - 46.4 °F 67% 30.17 in 10.0 mi NE 10.4 mph - N/A   Clear
11:35 AM 57.2 °F - 46.4 °F 67% 30.17 in 10.0 mi NE 4.6 mph - N/A   Clear
11:55 AM 59.0 °F - 46.4 °F 63% 30.17 in 10.0 mi NE 5.8 mph 10.4 mph N/A   Clear
12:15 PM 60.8 °F - 46.4 °F 59% 30.17 in 10.0 mi North 8.1 mph - N/A   Clear
12:35 PM 60.8 °F - 44.6 °F 55% 30.16 in 10.0 mi NNE 5.8 mph - N/A   Clear
12:55 PM 60.8 °F - 44.6 °F 55% 30.15 in 10.0 mi North 4.6 mph - N/A   Clear
1:15 PM 62.6 °F - 42.8 °F 48% 30.14 in 10.0 mi NNE 3.5 mph - N/A   Clear
1:35 PM 62.6 °F - 42.8 °F 48% 30.14 in 10.0 mi NE 8.1 mph - N/A   Clear
1:55 PM 62.6 °F - 41.0 °F 45% 30.13 in 10.0 mi North 8.1 mph - N/A   Clear
2:15 PM 64.4 °F - 41.0 °F 42% 30.12 in 10.0 mi NNE 8.1 mph - N/A   Clear
2:55 PM 64.4 °F - 41.0 °F 42% 30.11 in 10.0 mi NNE 4.6 mph - N/A   Clear
3:15 PM 64.4 °F - 37.4 °F 37% 30.10 in 10.0 mi NNW 6.9 mph - N/A   Clear
3:35 PM 64.4 °F - 37.4 °F 37% 30.10 in 10.0 mi North 10.4 mph - N/A   Clear
3:55 PM 64.4 °F - 37.4 °F 37% 30.10 in 10.0 mi North 8.1 mph - N/A   Clear
4:15 PM 64.4 °F - 41.0 °F 42% 30.10 in 10.0 mi NNW 5.8 mph - N/A   Clear
5:15 PM 64.4 °F - 37.4 °F 37% 30.11 in 10.0 mi North 5.8 mph - N/A   Clear
5:55 PM 62.6 °F - 39.2 °F 42% 30.11 in 10.0 mi North 3.5 mph - N/A   Clear
6:15 PM 60.8 °F - 41.0 °F 48% 30.12 in 10.0 mi NNW 4.6 mph - N/A   Clear
6:35 PM 59.0 °F - 41.0 °F 51% 30.12 in 10.0 mi North 3.5 mph - N/A   Clear
6:55 PM 59.0 °F - 41.0 °F 51% 30.12 in 10.0 mi North 4.6 mph - N/A   Clear
7:15 PM 59.0 °F - 39.2 °F 48% 30.12 in 10.0 mi North 4.6 mph - N/A   Clear
7:35 PM 59.0 °F - 39.2 °F 48% 30.13 in 10.0 mi North 4.6 mph - N/A   Clear
7:55 PM 59.0 °F - 37.4 °F 45% 30.14 in 10.0 mi NNE 4.6 mph - N/A   Clear
8:15 PM 55.4 °F - 37.4 °F 51% 30.14 in 10.0 mi North 4.6 mph - N/A   Clear
8:35 PM 53.6 °F - 39.2 °F 58% 30.15 in 10.0 mi NNW 4.6 mph - N/A   Clear
8:55 PM 55.4 °F - 37.4 °F 51% 30.15 in 10.0 mi North 4.6 mph - N/A   Clear
9:15 PM 55.4 °F - 37.4 °F 51% 30.15 in 10.0 mi North 4.6 mph - N/A   Clear
9:35 PM 55.4 °F - 37.4 °F 51% 30.15 in 10.0 mi North 4.6 mph - N/A   Clear
9:55 PM 53.6 °F - 37.4 °F 54% 30.15 in 10.0 mi North 4.6 mph - N/A   Clear
10:15 PM 53.6 °F - 37.4 °F 54% 30.16 in 10.0 mi North 4.6 mph - N/A   Clear
10:55 PM 53.6 °F - 37.4 °F 54% 30.16 in 10.0 mi North 3.5 mph - N/A   Clear
11:15 PM 53.6 °F - 35.6 °F 51% 30.17 in 10.0 mi North 5.8 mph - N/A   Clear
11:35 PM 53.6 °F - 35.6 °F 51% 30.17 in 10.0 mi NNE 4.6 mph - N/A   Clear
11:55 PM 53.6 °F - 35.6 °F 51% 30.17 in 10.0 mi NNE 4.6 mph - N/A   Clear